This is the latest recevied weather packets stored in our database for station/object IK2ILW-6. If no packets are shown the sender has not sent any weather packets the latest 10 day(s).
| Time | Temp. | Humidity | Pressure | Rain* | Wind** | Luminosity | Snow |
|---|---|---|---|---|---|---|---|
| 1778175685 | 4.44° C | 91% | 1014.6 hPa | 2.03 mm | - | 47 W/m² | - |
| 1778175389 | 4.44° C | 94% | 1014.5 hPa | 3.05 mm | - | 62 W/m² | - |
| 1778175092 | 3.89° C | 93% | 1014.6 hPa | 4.06 mm | - | 132 W/m² | - |
| 1778174796 | 3.89° C | 95% | 1014.5 hPa | 5.08 mm | - | 70 W/m² | - |
| 1778174500 | 3.89° C | 95% | 1014.5 hPa | 6.1 mm | - | 84 W/m² | - |
| 1778174185 | 3.89° C | 96% | 1014.5 hPa | 6.1 mm | - | 158 W/m² | - |
| 1778173893 | 3.89° C | 96% | 1014.5 hPa | 6.1 mm | - | 135 W/m² | - |
| 1778173597 | 3.33° C | 96% | 1014.5 hPa | 6.1 mm | - | 197 W/m² | - |
| 1778173301 | 3.33° C | 96% | 1014.5 hPa | 6.1 mm | - | 171 W/m² | - |
| 1778172985 | 3.33° C | 96% | 1014.4 hPa | 6.1 mm | - | 100 W/m² | - |
| 1778172697 | 3.33° C | 96% | 1014.4 hPa | 5.08 mm | - | 49 W/m² | - |
| 1778172383 | 3.33° C | 96% | 1014.4 hPa | 4.06 mm | - | 30 W/m² | - |
| 1778172088 | 3.33° C | 96% | 1014.4 hPa | 4.06 mm | - | 16 W/m² | - |
| 1778171792 | 3.33° C | 95% | 1014.3 hPa | 3.05 mm | - | 19 W/m² | - |
| 1778171495 | 3.89° C | 95% | 1014.3 hPa | 2.03 mm | - | 11 W/m² | - |
| 1778171199 | 3.89° C | 96% | 1014.2 hPa | 1.02 mm | - | 5 W/m² | - |
| 1778170883 | 4.44° C | 96% | 1014.2 hPa | 0 mm | - | 11 W/m² | - |
| 1778170585 | 4.44° C | 95% | 1014.3 hPa | 0 mm | - | 12 W/m² | - |
| 1778170293 | 4.44° C | 95% | 1014.3 hPa | 0 mm | - | 18 W/m² | - |
| 1778169997 | 4.44° C | 95% | 1014.3 hPa | 0 mm | - | 16 W/m² | - |
| 1778169700 | 5° C | 95% | 1014.3 hPa | 0 mm | - | 23 W/m² | - |
| 1778169384 | 5° C | 95% | 1014.3 hPa | 0 mm | - | 28 W/m² | - |
| 1778169087 | 5° C | 95% | 1014.2 hPa | 0 mm | - | 62 W/m² | - |
| 1778168791 | 5° C | 95% | 1014.2 hPa | 0 mm | - | 58 W/m² | - |
| 1778168494 | 5° C | 95% | 1014.2 hPa | 0 mm | - | 58 W/m² | - |
* Rain latest hour (hover to see other rain measurements)
** Current wind speed in m/s (hover to see current wind gust speed)